Weather History for Wenatchee, WA

Change the Weather History Date:

Monday, January 21, 2013

  Actual Average Record
Temperature  
Mean Temperature 21 °F 28 °F  
Max Temperature 22 °F 34 °F 48 °F (2011)
Min Temperature 20 °F 23 °F -1 °F (1962)
Degree Days  
Heating Degree Days 44 37  
Month to date heating degree days 829 800  
Since 1 July heating degree days 2996 3898  
Cooling Degree Days 0 0  
Month to date cooling degree days 0 0  
Year to date cooling degree days 0 0  
Moisture  
Dew Point 18 °F    
Average Humidity 88    
Maximum Humidity 92    
Minimum Humidity 84    
Precipitation  
Precipitation T in 0.05 in 0.39 in (2003)
Month to date precipitation 0.19 1.37  
Year to date precipitation 0.19 1.37  
Snow  
Snow 0.00 in 0.40 in - ()
Month to date snowfall 11.6  
Since 1 July snowfall 36.5  
Snow Depth -    
Sea Level Pressure  
Sea Level Pressure 30.42 in    
Wind  
Wind Speed 2 mph (NW)    
Max Wind Speed 7 mph    
Max Gust Speed 9 mph    
Visibility 4 miles    
Events Fog    
T = Trace of Precipitation, MM = Missing Value Source: NWS Daily Summary

Daily Weather History Graph

Daily Weather History Graph

Search for Another Location

Airport:

Trip Planner

Search our weather history database for the weather conditions in past years. The results will help you decide how hot, cold, wet, or windy it might be!

Date:

Astronomy

Jan. 21, 2013 Rise Set
Actual Time 7:38 AM PST 4:46 PM PST
Civil Twilight 7:04 AM PST 5:20 PM PST
Nautical Twilight 6:27 AM PST 5:58 PM PST
Astronomical Twilight 5:50 AM PST 6:34 PM PST
Moon 12:28 PM PST (1/21) 3:12 AM PST (1/21)
Length of Visible Light 10h 15m
Length of Day
9h 07m
Waxing Gibbous, 76% of the Moon is Illuminated
Jan 21
Waxing Gibbous
Jan 26
Full
Feb 3
Last Quarter
Feb 9
New
Feb 17
First Quarter

Hourly Weather History & Observations

Time (PST) Temp. Windchill Dew Point Humidity Pressure Visibility Wind Dir Wind Speed Gust Speed Precip Events Conditions
12:48 AM 21.2 °F - 19.4 °F 93% 30.42 in 0.8 mi Calm Calm - 0.00 in   Mist
12:55 AM 21.9 °F - 19.9 °F 92% 30.48 in 0.8 mi Calm Calm - 0.00 in   Mist
1:03 AM 21.2 °F - 19.4 °F 93% 30.42 in 1.8 mi Calm Calm - N/A   Overcast
1:11 AM 21.2 °F - 17.6 °F 86% 30.42 in 2.5 mi Calm Calm - N/A   Overcast
1:24 AM 21.2 °F 14.9 °F 19.4 °F 93% 30.42 in 0.8 mi WNW 4.6 mph - N/A   Overcast
1:55 AM 21.0 °F 14.6 °F 18.0 °F 88% 30.49 in 1.0 mi NW 4.6 mph - N/A   Mist
2:02 AM 21.2 °F - 19.4 °F 93% 30.43 in 0.5 mi Calm Calm - N/A Fog Light Freezing Fog
2:13 AM 21.2 °F 14.9 °F 19.4 °F 93% 30.43 in 1.2 mi NW 4.6 mph - N/A   Overcast
2:26 AM 21.2 °F 16.4 °F 19.4 °F 93% 30.43 in 0.8 mi NNW 3.5 mph - N/A   Mist
2:51 AM 21.2 °F 16.4 °F 17.6 °F 86% 30.42 in 1.0 mi West 3.5 mph - N/A   Mist
2:55 AM 21.0 °F - 18.0 °F 88% 30.48 in 1.2 mi Calm Calm - N/A   Overcast
3:34 AM 21.2 °F - 17.6 °F 86% 30.43 in 3.0 mi Calm Calm - N/A   Overcast
3:50 AM 21.2 °F - 17.6 °F 86% 30.43 in 1.8 mi Calm Calm - N/A   Overcast
3:55 AM 21.0 °F - 18.0 °F 88% 30.48 in 1.2 mi Calm Calm - N/A   Overcast
4:55 AM 21.0 °F - 18.0 °F 88% 30.46 in 2.5 mi Calm Calm - N/A   Overcast
5:30 AM 21.2 °F - 17.6 °F 86% 30.41 in 3.0 mi Calm Calm - N/A   Overcast
5:38 AM 21.2 °F - 19.4 °F 93% 30.41 in 1.8 mi Calm Calm - N/A   Overcast
5:55 AM 21.0 °F - 18.0 °F 88% 30.46 in 1.2 mi Calm Calm - N/A   Overcast
6:21 AM 21.2 °F - 17.6 °F 86% 30.40 in 2.5 mi Calm Calm - N/A   Overcast
6:40 AM 21.2 °F - 17.6 °F 86% 30.39 in 1.5 mi Calm Calm - N/A   Overcast
6:55 AM 21.0 °F - 18.0 °F 88% 30.45 in 2.5 mi Calm Calm - N/A   Overcast
7:03 AM 21.2 °F - 19.4 °F 93% 30.39 in 3.0 mi Calm Calm - N/A   Overcast
7:10 AM 21.2 °F - 19.4 °F 93% 30.39 in 2.5 mi Calm Calm - N/A   Overcast
7:19 AM 19.4 °F - 17.6 °F 93% 30.38 in 3.0 mi Calm Calm - N/A   Overcast
7:48 AM 19.4 °F - 17.6 °F 93% 30.39 in 1.8 mi Calm Calm - N/A   Overcast
7:55 AM 19.9 °F - 18.0 °F 92% 30.45 in 1.2 mi Calm Calm - N/A   Overcast
8:12 AM 21.2 °F 16.4 °F 17.6 °F 86% 30.39 in 2.0 mi WSW 3.5 mph - N/A   Overcast
8:25 AM 21.2 °F - 17.6 °F 86% 30.39 in 1.8 mi Calm Calm - N/A   Overcast
8:32 AM 21.2 °F 13.6 °F 17.6 °F 86% 30.39 in 2.5 mi NW 5.8 mph - N/A   Overcast
8:39 AM 19.4 °F 12.8 °F 17.6 °F 93% 30.39 in 4.0 mi NNW 4.6 mph - N/A   Overcast
8:55 AM 19.9 °F - 18.0 °F 92% 30.46 in 2.5 mi Calm Calm - N/A   Overcast
9:08 AM 19.4 °F 14.3 °F 17.6 °F 93% 30.41 in 5.0 mi North 3.5 mph - N/A   Overcast
9:55 AM 21.0 °F - 18.0 °F 88% 30.46 in 6.0 mi Calm Calm - N/A   Overcast
10:55 AM 21.0 °F - 19.0 °F 92% 30.46 in 5.0 mi Calm Calm - N/A   Overcast
11:55 AM 21.0 °F 14.6 °F 18.0 °F 88% 30.45 in 5.0 mi NW 4.6 mph - N/A   Overcast
12:55 PM 21.0 °F 14.6 °F 18.0 °F 88% 30.43 in 7.0 mi SW 4.6 mph - N/A   Overcast
1:55 PM 21.0 °F 16.2 °F 18.0 °F 88% 30.41 in 9.0 mi WSW 3.5 mph - N/A   Overcast
2:55 PM 21.0 °F - 17.1 °F 85% 30.40 in 7.0 mi Calm Calm - N/A   Overcast
3:55 PM 21.0 °F - 18.0 °F 88% 30.39 in 8.0 mi Calm Calm - N/A   Overcast
4:23 PM 21.2 °F - 17.6 °F 86% 30.33 in 6.0 mi Calm Calm - N/A   Overcast
4:55 PM 21.0 °F - 18.0 °F 88% 30.40 in 5.0 mi Calm Calm - N/A   Overcast
5:55 PM 21.0 °F - 17.1 °F 85% 30.39 in 7.0 mi Calm Calm - N/A   Overcast
6:55 PM 21.0 °F 14.6 °F 17.1 °F 85% 30.40 in 8.0 mi West 4.6 mph - N/A   Overcast
7:52 PM 21.2 °F - 17.6 °F 86% 30.33 in 6.0 mi Calm Calm - N/A   Overcast
7:55 PM 21.0 °F 16.2 °F 17.1 °F 85% 30.39 in 6.0 mi North 3.5 mph - N/A   Overcast
8:55 PM 19.9 °F 13.4 °F 17.1 °F 89% 30.40 in 10.0 mi North 4.6 mph - N/A   Overcast
9:55 PM 19.9 °F 14.9 °F 17.1 °F 89% 30.40 in 10.0 mi NNE 3.5 mph - N/A   Overcast
10:55 PM 21.0 °F 16.2 °F 18.0 °F 88% 30.41 in 9.0 mi North 3.5 mph - N/A   Overcast
11:55 PM 19.9 °F 14.9 °F 17.1 °F 89% 30.40 in 9.0 mi WNW 3.5 mph - N/A   Overcast